Overview Statistics Trail Chart Weather Telemetry Raw packets
 

This is the latest recevied weather packets stored in our database for station/object DL4PY-13. If no packets are shown the sender has not sent any weather packets the latest 10 day(s).

<< 1 2 3 4 >>
Time Temp. Humidity Pressure Rain* Wind** Luminosity Snow
1788597771 16.11° C 81% 1023.2 hPa 0 mm - - -
1788596871 16.67° C 81% 1022.9 hPa 0 mm - - -
1788595970 16.11° C 84% 1022.9 hPa 0 mm - - -
1788595071 16.11° C 86% 1022.7 hPa 0 mm - - -
1788594173 15.56° C 87% 1022.6 hPa 0 mm - - -
1788593270 15.56° C 88% 1022.6 hPa 0 mm - - -
1788592372 15.56° C 88% 1022.3 hPa 0 mm - - -
1788591471 15° C 90% 1021.8 hPa 0 mm - - -
1788590571 14.44° C 91% 1021.7 hPa 0 mm - - -
1788589671 14.44° C 92% 1021.7 hPa 0 mm - - -
1788588770 14.44° C 93% 1021.5 hPa 0 mm - - -
1788587870 14.44° C 94% 1021.2 hPa 0 mm - - -
1788586970 13.89° C 94% 1020.9 hPa 0 mm - - -
1788586070 13.33° C 93% 1020.7 hPa 0 mm - - -
1788585171 13.33° C 93% 1020.5 hPa 0 mm - - -
1788584270 13.33° C 93% 1020.1 hPa 0 mm - - -
1788583369 13.89° C 93% 1019.9 hPa 0 mm - - -
1788582470 13.89° C 93% 1019.8 hPa 0 mm - - -
1788581570 13.89° C 93% 1019.6 hPa 0 mm - - -
1788580674 13.89° C 94% 1019.5 hPa 0 mm - - -
1788579771 14.44° C 94% 1019.5 hPa 0 mm - - -
1788579432 14.44° C 94% 1019.5 hPa 0 mm - - -
1788578532 15° C 94% 1019.3 hPa 0 mm - - -
1788577632 15° C 94% 1019.2 hPa 0 mm - - -
1788576732 15° C 94% 1018.9 hPa 0 mm - - -

* Rain latest hour (hover to see other rain measurements)
** Current wind speed in m/s (hover to see current wind gust speed)